This demonstration page uses our WeatherBlox Daily Observations layout. Learn more.

Left ArrowRight Arrow

34.74481, -87.66753

Hourly Observations for December 27, 2020

Temp ( °F °C ) Dew Point ( °F °C ) Humidity (%) Winds ( mph kmh ) Pressure ( in mb ) Visibility ( mi km ) Precip ( " mm )
12:53 am 00:53 Clear 33 0.6 23 -5 66 66 SE 6 9 30.10 1019 10 16 0.00 0.00
1:53 am 01:53 Clear 32 0 23 -5 69 69 Calm 30.11 1020 10 16 0.00 0.00
2:53 am 02:53 Clear 31 -0.6 22 -5.6 69 69 SE 5 7 30.12 1020 10 16 0.00 0.00
3:53 am 03:53 Clear 34 1.1 24 -4.4 67 67 SE 7 11 30.12 1020 10 16 0.00 0.00
4:53 am 04:53 Clear 32 0 22 -5.6 66 66 E 3 6 30.13 1020 10 16 0.00 0.00
5:53 am 05:53 Clear 31 -0.6 22 -5.6 69 69 E 5 7 30.14 1021 10 16 0.00 0.00
6:53 am 06:53 Clear 32 0 22 -5.6 66 66 E 5 7 30.16 1021 10 16 0.00 0.00
7:53 am 07:53 Sunny 36 2.2 25 -3.9 64 64 Calm 30.17 1022 10 16 0.00 0.00
8:53 am 08:53 Sunny 43 6.1 28 -2.2 56 56 SSE 5 7 30.18 1022 10 16 0.00 0.00
9:53 am 09:53 Sunny 50 10 28 -2.2 43 43 S 6 9 30.18 1022 10 16 0.00 0.00
10:53 am 10:53 Sunny 56 13.3 28 -2.2 34 34 S 13 20 30.14 1021 10 16 0.00 0.00
11:53 am 11:53 Sunny 60 15.6 27 -2.8 28 28 S 15 24 30.10 1019 10 16 0.00 0.00
12:53 pm 12:53 Sunny 61 16.1 27 -2.8 27 27 S 20 31 30.07 1018 10 16 0.00 0.00
1:53 pm 13:53 Sunny 63 17.2 28 -2.2 27 27 SSW 18 30 30.04 1017 10 16 0.00 0.00
2:53 pm 14:53 Sunny 62 16.7 29 -1.7 29 29 S 18 30 30.03 1017 10 16 0.00 0.00
3:53 pm 15:53 Sunny 60 15.6 29 -1.7 31 31 S 14 22 30.02 1017 10 16 0.00 0.00
4:53 pm 16:53 Clear 57 13.9 28 -2.2 33 33 S 12 19 30.05 1018 10 16 0.00 0.00
5:53 pm 17:53 Clear 54 12.2 28 -2.2 37 37 S 8 13 30.05 1018 10 16 0.00 0.00
6:53 pm 18:53 Clear 52 11.1 29 -1.7 41 41 S 7 11 30.07 1018 10 16 0.00 0.00
7:53 pm 19:53 Clear 52 11.1 29 -1.7 41 41 S 10 17 30.10 1019 10 16 0.00 0.00
8:53 pm 20:53 Clear 52 11.1 28 -2.2 40 40 SSW 9 15 30.14 1021 10 16 0.00 0.00
9:53 pm 21:53 Mostly Cloudy 53 11.7 29 -1.7 40 40 S 13 20 30.12 1020 10 16 0.00 0.00
10:53 pm 22:53 Mostly Cloudy 53 11.7 30 -1.1 41 41 SSW 13 20 30.12 1020 10 16 0.00 0.00
11:53 pm 23:53 Cloudy 54 12.2 32 0 43 43 SSW 15 24 30.12 1020 10 16 0.00 0.00

Powered by AerisWeather